Flag for Kazakhstan Weather past 2 weeks in Shymkent, Kazakhstan

Now
64 °F

Passing clouds.


Feels Like: 64 °F
Forecast: 65 / 91 °F
Wind: 3 mph from East

Location: Shymkent Airport

Current Time: May 30, 2015 at 6:48:05 AM

Latest Report: May 30, 2015 at 6:00 AM


Visibility: N/A

Pressure: 29.83 "Hg

Humidity: 60%

Dew point: 50 °F

Location of ShymkentLocation

Historic Weather in Shymkent — Graph

°F

Shymkent temperature yesterday

Maximum temperature yesterday: 91 °F (at 12:30 PM)
Minimum temperature yesterday: 64 °F (at 2:00 AM)
Average temperature yesterday: 80 °F

Past Weeks' High & Low Weather Summary

 TemperatureHumidityPressure
High93 °F (May 15, 1:30 PM)100% (May 16, 6:00 PM)30.15 "Hg (May 16, 6:00 PM)
Low48 °F (May 22, 4:00 AM)16% (May 29, 12:30 PM)29.62 "Hg (May 16, 3:00 AM)
Average70 °F50%29.95 "Hg
* Reported May 15 5:00 AM — May 30 5:30 AM, Shymkent, Weather by CustomWeather, © 2015

Note: Actual official high and low records may vary slightly from our data, if they occured in-between our weather recording intervals... More about our weather records

Advertising

Shymkent weather history for previous 24 hours

 ConditionsComfort  
Time TempWeatherWind HumidityBarometerVisibility
5:30 AM
Sat, May 30
64 °FClear.3 mph60%29.83 "Hg10 mi
5:00 AM66 °FClear.3 mph56%29.83 "Hg10 mi
4:30 AM66 °FPassing clouds.3 mph56%29.83 "HgN/A
4:00 AM68 °FClear.3 mph53%29.83 "Hg10 mi
3:30 AM64 °FClear.6 mph60%29.83 "Hg10 mi
2:30 AM66 °FClear.8 mph56%29.83 "Hg10 mi
2:00 AM70 °FClear.6 mph50%29.83 "Hg10 mi
1:30 AM72 °FClear.1 mph47%29.83 "Hg10 mi
1:00 AM72 °FClear.8 mph47%29.83 "Hg10 mi
12:30 AM72 °FClear.8 mph50%29.83 "Hg10 mi
12:00 AM75 °FClear.8 mph39%29.83 "Hg10 mi
11:30 PM
Fri, May 29
73 °FClear.10 mph44%29.83 "Hg10 mi
11:00 PM73 °FClear.6 mph38%29.83 "Hg4 mi
10:30 PM75 °FClear.3 mph36%29.80 "Hg4 mi
10:00 PM77 °FClear.6 mph39%29.80 "Hg4 mi
9:30 PM81 °FClear.6 mph32%29.80 "Hg10 mi
9:00 PM82 °FClear.6 mph28%29.80 "Hg10 mi
8:30 PM84 °FSunny.6 mph25%29.80 "Hg10 mi
8:00 PM86 °FSunny.6 mph25%29.80 "Hg10 mi
7:30 PM88 °FSunny.8 mph21%29.80 "Hg10 mi
7:00 PM90 °FSunny.6 mph20%29.80 "Hg10 mi
6:30 PM90 °FSunny.6 mph20%29.77 "Hg10 mi
6:00 PM90 °FSunny.6 mph21%29.77 "Hg10 mi
5:30 PM91 °FSunny.8 mph20%29.77 "Hg10 mi
5:00 PM91 °FSunny.8 mph21%29.77 "Hg10 mi
4:30 PM91 °FSunny.8 mph21%29.77 "Hg10 mi
4:00 PM91 °FSunny.3 mph17%29.77 "Hg10 mi
3:30 PM91 °FSunny.3 mph21%29.77 "Hg10 mi
3:00 PM91 °FPassing clouds.6 mph20%29.77 "HgN/A
2:30 PM90 °FPassing clouds.6 mph21%29.77 "HgN/A
2:00 PM90 °FSunny.3 mph17%29.77 "Hg10 mi
1:30 PM90 °FPassing clouds.3 mph18%29.77 "HgN/A
1:00 PM90 °FSunny.3 mph18%29.77 "Hg10 mi
12:30 PM91 °FPassing clouds.6 mph16%29.77 "HgN/A
12:00 PM88 °FPassing clouds.6 mph18%29.77 "HgN/A
11:30 AM88 °FSunny.3 mph24%29.77 "Hg10 mi
11:00 AM88 °FPassing clouds.6 mph18%29.77 "HgN/A
10:30 AM86 °FPassing clouds.6 mph24%29.77 "HgN/A
10:00 AM84 °FPassing clouds.8 mph27%29.77 "HgN/A
9:30 AM84 °FPassing clouds.3 mph23%29.77 "HgN/A
9:00 AM79 °FPassing clouds.3 mph39%29.77 "HgN/A
8:30 AM75 °FSunny.6 mph41%29.77 "Hg10 mi
8:00 AM72 °FSunny.8 mph47%29.77 "Hg10 mi
7:30 AM70 °FSunny.6 mph46%29.77 "Hg10 mi
7:00 AM68 °FSunny.6 mph46%29.77 "Hg10 mi
6:30 AM66 °FSunny.8 mph46%29.77 "Hg10 mi
6:00 AM66 °FSunny.8 mph43%29.77 "Hg10 mi
Weather by CustomWeather, © 2015

See weather overviewHow to use our weather pages